Weather History for Jefferson City, MO

Change the Weather History Date:

Friday, November 2, 2012

  Actual Average Record
Temperature  
Mean Temperature 52 °F -  
Max Temperature 62 °F 63 °F 81 °F (1964)
Min Temperature 43 °F 39 °F 19 °F (1963)
Degree Days  
Heating Degree Days 13    
Growing Degree Days 2 (Base 50)    
Moisture  
Dew Point 32 °F    
Average Humidity 50    
Maximum Humidity 71    
Minimum Humidity 30    
Precipitation  
Precipitation 0.00 in - - ()
Sea Level Pressure  
Sea Level Pressure 29.97 in    
Wind  
Wind Speed 5 mph (East)    
Max Wind Speed 10 mph    
Max Gust Speed 17 mph    
Visibility 10 miles    
Events      
Averages and records for this station are not official NWS values.
T = Trace of Precipitation, MM = Missing Value Source: NWS Daily Summary

Daily Weather History Graph

Daily Weather History Graph

Search for Another Location

Airport:

Trip Planner

Search our weather history database for the weather conditions in past years. The results will help you decide how hot, cold, wet, or windy it might be!

Date:

Astronomy

Nov. 02, 2012 Rise Set
Actual Time 7:36 AM CDT 6:06 PM CDT
Civil Twilight 7:09 AM CDT 6:34 PM CDT
Nautical Twilight 6:37 AM CDT 7:05 PM CDT
Astronomical Twilight 6:06 AM CDT 7:36 PM CDT
Moon 8:55 PM CDT (11/2) 10:56 AM CDT (11/2)
Length of Visible Light 11h 25m
Length of Day
10h 29m
Waning Gibbous, 87% of the Moon is Illuminated
Nov 2
Waning Gibbous
Nov 6
Last Quarter
Nov 13
New
Nov 20
First Quarter
Nov 28
Full

Hourly Weather History & Observations

Time (CDT) Temp. Windchill Dew Point Humidity Pressure Visibility Wind Dir Wind Speed Gust Speed Precip Events Conditions
12:53 AM 53.1 °F - 39.0 °F 59% 29.92 in 10.0 mi Calm Calm - N/A   Clear
1:53 AM 52.0 °F - 37.0 °F 57% 29.94 in 10.0 mi North 3.5 mph - N/A   Clear
2:53 AM 48.0 °F - 37.0 °F 66% 29.95 in 10.0 mi Calm Calm - N/A   Clear
3:53 AM 45.0 °F - 35.1 °F 68% 29.96 in 10.0 mi Calm Calm - N/A   Clear
4:53 AM 44.1 °F 42.5 °F 35.1 °F 71% 29.98 in 10.0 mi North 3.5 mph - N/A   Clear
5:53 AM 45.0 °F 43.5 °F 33.1 °F 63% 29.99 in 10.0 mi NNE 3.5 mph - N/A   Clear
6:53 AM 44.1 °F 40.1 °F 33.1 °F 65% 30.00 in 10.0 mi NNE 6.9 mph - N/A   Clear
7:53 AM 43.0 °F 38.8 °F 32.0 °F 65% 30.01 in 10.0 mi NE 6.9 mph - N/A   Clear
8:53 AM 44.1 °F - 32.0 °F 63% 30.04 in 10.0 mi Calm Calm - N/A   Clear
9:53 AM 46.9 °F - 30.9 °F 54% 30.04 in 10.0 mi ESE 8.1 mph - N/A   Clear
10:53 AM 51.1 °F - 30.0 °F 44% 30.04 in 10.0 mi ESE 8.1 mph - N/A   Clear
11:53 AM 54.0 °F - 30.0 °F 40% 30.02 in 10.0 mi East 9.2 mph - N/A   Clear
12:53 PM 55.9 °F - 30.0 °F 37% 29.99 in 10.0 mi ESE 9.2 mph - N/A   Clear
2:53 PM 60.1 °F - 28.9 °F 31% 29.95 in 10.0 mi East 9.2 mph - N/A   Clear
3:53 PM 61.0 °F - 28.9 °F 30% 29.94 in 10.0 mi ESE 9.2 mph - N/A   Clear
4:53 PM 60.1 °F - 28.9 °F 31% 29.93 in 10.0 mi East 8.1 mph 17.3 mph N/A   Clear
5:53 PM 57.9 °F - 28.9 °F 33% 29.93 in 10.0 mi East 6.9 mph - N/A   Clear
6:53 PM 55.9 °F - 30.9 °F 39% 29.93 in 10.0 mi East 8.1 mph - N/A   Clear
7:53 PM 54.0 °F - 30.9 °F 41% 29.93 in 10.0 mi East 9.2 mph - N/A   Clear
8:53 PM 53.1 °F - 32.0 °F 45% 29.93 in 10.0 mi East 10.4 mph 17.3 mph N/A   Clear
9:53 PM 52.0 °F - 32.0 °F 47% 29.94 in 10.0 mi East 9.2 mph - N/A   Clear
10:53 PM 51.1 °F - 33.1 °F 50% 29.94 in 10.0 mi East 10.4 mph - N/A   Clear
11:53 PM 50.0 °F - 33.1 °F 52% 29.93 in 10.0 mi ESE 10.4 mph - N/A   Clear